Other Public Products
Issued by NWS Grand Forks, ND

Home | Current Version | Previous Version | Text Only | Print | Product List | Glossary Off
Versions: 1 2 3 4 5 6 7 8 9 10 11 12 13 14 15 16 17 18 19 20 21 22 23 24 25 26 27 28 29 30 31 32 33 34 35 36 37 38 39 40 41 42 43 44 45 46 47 48 49 50

000
FPUS83 KFGF 221431
OPUFGF
PRAIRIE TO PINES WEATHER ROUNDUP
NATIONAL WEATHER SERVICE EASTERN NORTH DAKOTA/GRAND FORKS ND
900 AM CDT SUN OCT 22 2017

 **SATELLITE DATA USED TO AUGMENT SKY COVER AT AUTOMATED STATIONS**
 *****  WEATHER ACROSS EASTERN NORTH DAKOTA  *****

CITY           SKY/WX    TMP DP  RH WIND       PRES   REMARKS
GRAND FORKS    FAIR      43  34  70 SW14      29.80R
GRAND FORKS AF FAIR      42  31  65 SW13      29.80R
GRAND CITY NWS NOT AVBL
BUXTON           N/A     43  35  73 SW13        N/A
DEVILS LAKE    FAIR      40  33  76 SW12      29.79R
FARGO          FAIR      41  34  76 SW10      29.88R
WAHPETON ARPT  NOT AVBL
$$

 *****  WEATHER ACROSS CENTRAL AND WESTERN NORTH DAKOTA  *****

CITY           SKY/WX    TMP DP  RH WIND       PRES   REMARKS
JAMESTOWN      FAIR      39  29  67 SW12      29.86R
BISMARCK       FAIR      33  26  75 CALM      29.86S
MINOT          FAIR      39  28  64 SW12      29.75R
MINOT AFB      FAIR      38  28  66 SW10      29.73S
GARRISON         N/A     37  31  78 SW10      29.78F
WILLISTON      FAIR      31  25  78 S5        29.74F
DICKINSON      FAIR      38  20  48 SW16      29.78F
HETTINGER      FAIR      34  21  59 S6        29.86F
$$

 *****  OTHER OBSERVATIONS NORTHEAST NORTH DAKOTA  *****

CITY           SKY/WX    TMP DP  RH WIND       PRES   REMARKS
WALHALLA       FAIR     N/A N/A N/A W10G22    29.72R
LANGDON        FAIR      36  34  93 W16       29.73R
CAVALIER       FAIR      43  34  70 SW16G23   29.73R
GRAFTON        FAIR      43  34  70 SW16      29.78R
CANDO          FAIR      37  36  93 SW13      29.79R
FORT TOTTEN      N/A     39  30  69 SW7       29.95S
ROLLA          FLURRIES  36  30  80 SW16      29.74R
RUGBY          FAIR      34  30  86 SW8       29.76S
 ***** THE ABOVE OBSERVATIONS ARE NON NWS ARE NOT QUALITY
        CONTROLLED AND MAY MIS-REPORT RAIN FOR SNOW...
$$

 *****  OTHER OBSERVATIONS SOUTHEAST NORTH DAKOTA *****

CITY           SKY/WX    TMP DP  RH WIND       PRES   REMARKS
COOPERSTOWN    FAIR      39  32  75 SW12      29.85R
VALLEY CITY    MIX PCPN  39  30  70 SW14      29.89R
OAKES          NOT AVBL
GWINNER          N/A     37  32  81 SW9       29.93R
SHEYENNE NWR     N/A     37  33  85 SW5       29.95S
BUFFALO          N/A     40  31  71 SE9         N/A
WYNDMERE       NOT AVBL
 ***** THE ABOVE OBSERVATIONS ARE NON NWS ARE NOT QUALITY
       CONTROLLED AND MAY MIS-REPORT RAIN FOR SNOW...
$$

  *****  WEATHER ACROSS NORTHERN MINNESOTA  *****

CITY           SKY/WX    TMP DP  RH WIND       PRES   REMARKS
FLAG ISLAND    CLOUDY    46  37  71 SW18G25   29.63R
WARROAD        FAIR      45  37  76 SW16G22   29.71R
ROSEAU         FAIR      45  37  76 SW16G22   29.71R
HALLOCK        FAIR      43  36  75 SW15      29.74R
THF RVR FALLS  FAIR      42  33  70 SW17G25   29.80R
HALSTAD        NOT AVBL
FOSSTON        FAIR      41  34  75 SW13      29.85R
BAUDETTE       FAIR      44  36  73 SW15G30   29.71R
WASKISH        FAIR      46  39  76 SW18G25   29.77R
CROOKSTON      FAIR      45  34  65 SW16      29.83R
$$
  *****  WEATHER ACROSS CENTRAL AND WEST MINNESOTA  *****

CITY           SKY/WX    TMP DP  RH WIND       PRES   REMARKS
BEMIDJI        FAIR      44  34  68 W12G17    29.84R
PARK RAPIDS    FAIR      43  36  76 W8        29.87R
WADENA         FAIR      45  36  70 SW6       29.90R
DETROIT LAKES  FAIR      43  34  70 W9        29.89F
MOORHEAD       FAIR      39  34  81 S5        29.90S
FERGUS FALLS   FAIR      39  36  87 W9        29.94S
ELBOW LAKE     FAIR      40  36  83 SW7       29.94S
MORRIS MN      FAIR      45  37  76 W8        29.94F
STAPLES        FAIR      45  36  70 SW10      29.90S
WHEATON        FAIR      43  34  70 SW8       29.97S
$$
  *****  WEATHER ELSEWHERE ACROSS MINNESOTA  *****

CITY           SKY/WX    TMP DP  RH WIND       PRES   REMARKS
DULUTH         FAIR      45  41  86 W13       29.85R
INTRNTL FALLS  FAIR      43  39  86 SW12      29.72R
ELY            FAIR      46  39  76 SW10      29.80R
CLOQUET        FAIR      46  39  76 SW9       29.87R
BRAINERD       FAIR     N/A N/A N/A SW10      29.90R
HIBBING        FAIR      43  39  86 SW6       29.83R
ALEXANDRIA     FAIR      43  38  82 SW9       29.95R
SAINT CLOUD    FAIR      42  40  92 W7        29.95R
MINNEAPOLIS    PTSUNNY   49  42  77 W9        29.98R
$$

  *****  WEATHER ACROSS SOUTH DAKOTA  *****

CITY           SKY/WX    TMP DP  RH WIND       PRES   REMARKS
SIOUX FALLS    FAIR      43  34  70 CALM      30.06R
BROOKINGS      FAIR      37  32  82 S8        30.02R
WATERTOWN      FAIR      37  34  89 S9        29.99R
HURON          FAIR      40  32  73 S6        30.01S
SISSETON         N/A     45  33  63 SW14      29.94R
ABERDEEN       FAIR      33  30  88 S5        29.96S
MITCHELL       FAIR      42  31  64 SW8       30.04S
PIERRE         FAIR      35  28  75 SW6       29.97R
MOBRIDGE       FAIR      39  30  70 SE5       29.92R
RAPID CITY     FAIR      33  18  53 CALM      29.95S
$$

  *****  SOME WEATHER IN NEARBY STATES *****

CITY           SKY/WX    TMP DP  RH WIND       PRES   REMARKS
GLASGOW MT     CLOUDY    40  28  62 SE9       29.65F
GREAT FALLS MT FAIR      51  34  52 SW17G29   29.71R
CHEYENNE WY    FAIR      44  20  38 W31G41    30.14R
SCOTTSBLUFF NE FAIR      40  22  48 W5        30.08R
OMAHA NE       PTSUNNY   46  38  73 CALM      30.11R
DES MOINES IA  PTSUNNY   51  44  77 NW8       30.05R
DAVENPORT IA   CLOUDY    53  50  89 NW10      30.00R
CHICAGO IL     PTSUNNY   67  57  70 S21       29.94S
EAU CLAIRE WI  CLOUDY    50  43  77 SW6       29.95R
LA CROSSE WI   CLOUDY    53  47  79 W5        29.97R
$$

  *****  SOME NATIONAL WEATHER *****

CITY           SKY/WX    TMP DP  RH WIND       PRES   REMARKS
LA GUARDIA NY  PTSUNNY   66  53  63 VRB3      30.41S
RALEIGH NC     PTSUNNY   65  59  81 VRB3      30.38S
ATLANTA GA     PTSUNNY   64  61  90 E12       30.28R
NEW ORLEANS LA FAIR      74  73  97 S5        30.04R
OKLAHOMA CITY  FAIR      51  46  83 N10       30.17S
ALBUQUERQUE NM FAIR      39   9  29 CALM      30.38S
SALT LAKE CITY MOCLDY    49  22  34 SE12      30.36F
LOS ANGELES CA FAIR      65  35  33 NE3       30.09S
BOISE ID       CLOUDY    48  39  71 SE12      30.21S
SEATTLE WA     MOCLDY    53  49  86 S8        29.96R
$$

*** WEATHER ACROSS MANITOBA...SASKATCHEWAN AND ONTARIO ***
                ***ONTARIO***

CITY           SKY/WX    TMP DP  RH WIND       PRES   REMARKS
GERALDTON      CLOUDY    57  55  94 S14G25    29.68F FOG
THUNDER BAY    LGT RAIN  55  45  67 W13       29.74R
SIOUX LOOKOUT  PTSUNNY   46  41  81 SW13G32   29.60R
TORONTO        PTSUNNY   61  55  82 SE5       30.24F
BIG TROUT LK   CLOUDY    50  50 100 S7        29.34F
PICKLE LAKE    CLOUDY    48  46  93 SW13      29.51S
DRYDEN         LGT RAIN  45  41  87 SW14G24   29.60R
KENORA         CLOUDY    45  37  76 W21G33    29.59R
$$
                *** MANITOBA***

CITY           SKY/WX    TMP DP  RH WIND       PRES   REMARKS
BRANDON        PTCLDY    34  30  86 SW13      29.68R WCI  25
DAUPHIN        CLEAR     39  34  81 W20G28    29.57R
ISLAND LAKE    LGT RAIN  43  41  93 SW12G20   29.28F
PILOT MOUND      N/A     34  30  86 SW12        N/A
THE PAS        DRIZZLE   37  36  93 W15G24    29.45R
THOMPSON       LGT RAIN  34  32  93 NW8       29.20F FOG
WINNIPEG       MOCLDY    45  37  76 W21       29.63R
CHURCHILL      LGT RAIN  37  37 100 NE13      29.17S FOG
GILLAM         CLOUDY    45  43  93 SW15      29.14
$$
                ***SASKATCHEWAN***

CITY           SKY/WX    TMP DP  RH WIND       PRES   REMARKS
ESTEVAN        MOCLDY    32  25  74 SW14      29.69F WCI  22
KINDERSLEY     MOCLDY    34  28  80 S12G18    29.41F
LLOYDMINSTER   MOCLDY    28  27  93 SE6       29.39F WCI  22
PRINCE ALBERT  FOG       28  28 100 E3        29.55F VSB 1/4
REGINA         CLOUDY    28  25  86 SE7       29.61F WCI  21
YORKTON        CLEAR     30  28  93 SW8       29.59F WCI  23
N. BATTLEFORD  MOCLDY    30  27  86 E7        29.46F WC



USA.gov is the U.S. government's official web portal to all federal, state and local government web resources and services.